Tracking 29892 objects as of 21-Nov-2024
HD Live streaming from Space Station
objects crossing your sky now

DELTA 1 DEB

Track DELTA 1 DEB now!
10-day predictions


NORAD ID: 15205
Int'l Code: 1984-088E
Perigee: 553.7 km
Apogee: 3,836.2 km
Inclination: 28.7 °
Period: 131.5 minutes
Semi major axis: 8565 km
RCS: 0.0578 m2 (small)
Launch date: August 16, 1984
Source: United States (US)
Launch site: AIR FORCE EASTERN TEST RANGE (AFETR)

Note: This is SATELLITE DEBRIS
Your satellite tracking list
Your tracking list is empty




NASA's NSSDC Master Catalog

Two Line Element Set (TLE):
1 15205U 84088E   24324.29873920  .00000645  00000-0  35319-3 0  9995
2 15205  28.7328 193.3376 1916005 249.2381  89.3104 10.95059856174755
Source of the keplerian elements: AFSPC